Content
SEND FEEDBACK

Daily
Averages
Monthly
Summary
United States of America

TRAILWATERS RECREATION AREA, SOUTH DAKOTA


Home > North America > United States > South Dakota
Elevation: 1460 feet     Latitude: 44 04N     Longitude: 099 28W

WEATHER
 
SELECT A DAY
Number of Records: 178,653;   Date Range: 1/1/95 - 7/28/14
 
SHARE

PRINT THIS DATA

[ ← Previous Day ]
WEATHER ALMANAC - FEBRUARY 13, 2013
[ Next Day → ]
[ °C ]   °F
Weather ElementAverageHighLow
Temperature36.4 °F46 °F (2:52 pm)28 °F (1:52 am)
Dewpoint26.4 °F32 °F (4:52 pm)19.9 °F (7:52 am)
Humidity67.4 %81 % (1:52 am)51 % (2:52 pm)
Barometer29.78 in29.88 in (1:52 am)29.67 in (2:52 pm)
Wind Speed12.5 mph17.3 mph (1:52 pm)
Wind Gust19.6 mph (8:52 pm)
Weather ElementAverage
Wind DirectionWNW (276.5 °)

Weather ElementTotal
Precipitation---
Heating Degree Days28 (Base 65)
Averaged from 23 records on February 13, 2013
WEATHER CONDITIONS BREAKOUT
WIND DIRECTION BREAKOUT
WEATHER BY HOUR - FEBRUARY 13, 2013
[ °C ]   °F
Local TimeTemperatureDewpointHumidityBarometerVisibilityWind DirectionWind SpeedGust SpeedPrecipitationEventsConditions
1:52 AM28.0 °F23.0 °F81 %29.88 inWest (260°)6.9 mph
2:52 AM32.0 °F25.0 °F75 %29.88 inWest (280°)12.7 mph
3:52 AM30.0 °F23.0 °F75 %29.86 inWest (260°)12.7 mph
4:52 AM30.0 °F21.9 °F72 %29.83 inWSW (250°)13.8 mph
5:52 AM30.0 °F21.9 °F72 %29.82 inWest (280°)10.4 mph
6:52 AM30.0 °F21.0 °F69 %29.81 inWest (270°)12.7 mph
7:52 AM28.0 °F19.9 °F72 %29.81 inWest (260°)13.8 mph
8:52 AM30.0 °F21.0 °F69 %29.80 inWest (270°)16.1 mph
9:52 AM34.0 °F24.1 °F67 %29.78 inWest (260°)9.2 mph
10:52 AM37.0 °F25.0 °F62 %29.75 inWSW (240°)15.0 mph
11:52 AM37.9 °F27.0 °F65 %29.74 inWSW (240°)10.4 mph
12:52 PM41.0 °F28.0 °F60 %29.70 inSW (230°)13.8 mph
1:52 PM44.1 °F28.9 °F55 %29.69 inWNW (290°)17.3 mph
2:52 PM46.0 °F28.9 °F51 %29.67 inWNW (290°)16.1 mph
3:52 PM46.0 °F30.0 °F54 %29.68 inWNW (300°)15.0 mph
4:52 PM45.0 °F32.0 °F60 %29.70 inWNW (300°)12.7 mph
5:52 PM42.1 °F30.0 °F62 %29.73 inWNW (300°)12.7 mph
6:52 PM39.0 °F30.0 °F70 %29.75 inWest (280°)11.5 mph
7:52 PM39.0 °F30.0 °F70 %29.77 inWNW (290°)12.7 mph
8:52 PM37.9 °F28.9 °F70 %29.79 inWNW (300°)12.7 mph19.6 mph
9:52 PM36.0 °F28.9 °F76 %29.82 inWest (280°)8.1 mph
10:52 PM37.9 °F28.9 °F70 %29.84 inNW (320°)13.8 mph
11:52 PM37.0 °F28.9 °F73 %29.87 inNW (310°)6.9 mph
Hourly data recorded from K9V9, located miles away from Trailwaters Recreation Area, South Dakota







STORIES FROM OUR PARTNERS